User: anonymous   Login
Location: Unspecified
(0.0000°N, 0.0000°E)
Time: 00:27:00
(UTC+01:00)
Language:

Transit 2A - Orbit

View from above orbital plane
View from above orbital plane
View from above satellite
View from above satellite

Ground track
Ground track

The orbit data is extracted from the following two-line orbital elements,

1    45U 60007A   17053.90711867 -.00000011 +00000-0 +24080-4 0  9998
2    45 066.6964 330.6731 0249120 117.4686 245.1981 14.33537007892352
Epoch (UTC): 22 February 2017 21:46:15
Eccentricity: 0.0249120
inclination: 66.6964°
perigee height: 601 km
apogee height: 958 km
right ascension of ascending node: 330.6731°
argument of perigee: 117.4686°
revolutions per day: 14.33537007
mean anomaly at epoch: 245.1981°
orbit number at epoch: 89235

The dashed part of the orbit path shows where the satellite is in the earth's shadow,  

DLR